When you browse on this site, cookies collect data to enhance your experience and personalize the content and advertising you see.
Visit our Privacy Policy to learn more. By continuing to use the site, you agree to this use of cookies and data.
  • In Romania
  • List of Countries
  • For 7 days
  • Water Temperature
  • Weather Map
  • Weather Widgets
  • user-avatar
    Login

    Hourly Weather Molepolole

    Today, 21 February, Friday

    Time Temperature Precipitation Wind Pressure Humidity
    00:00 +27°C° 0 mm 2 mps 664 mmHg 51%
    01:00 +27°C° 0 mm 2 mps 664 mmHg 51%
    02:00 +26°C° 0 mm 3 mps 664 mmHg 55%
    03:00 +26°C° 0 mm 3 mps 664 mmHg 56%
    04:00 +26°C° 0 mm 2 mps 664 mmHg 56%
    05:00 +26°C° 0 mm 2 mps 663 mmHg 57%
    06:00 +26°C° 0 mm 2 mps 664 mmHg 55%
    07:00 +27°C° 0 mm 2 mps 664 mmHg 53%
    08:00 +27°C° 0 mm 2 mps 665 mmHg 51%
    15:00 +34°C° 0 mm 1 mps 664 mmHg 29%
    16:00 +34°C° 0 mm 1 mps 663 mmHg 29%
    17:00 +33°C° 0 mm 1 mps 663 mmHg 30%
    18:00 +32°C° 0 mm 2 mps 663 mmHg 33%
    19:00 +30°C° 0 mm 2 mps 663 mmHg 37%
    20:00 +29°C° 0 mm 3 mps 663 mmHg 40%
    21:00 +29°C° 0 mm 2 mps 663 mmHg 42%
    22:00 +28°C° 0 mm 2 mps 663 mmHg 44%
    23:00 +27°C° 0 mm 1 mps 663 mmHg 46%

    Tomorrow, 22 February, Saturday

    Time Temperature Precipitation Wind Pressure Humidity
    00:00 +28°C° 0 mm 1 mps 663 mmHg 46%
    01:00 +28°C° 0 mm 1 mps 663 mmHg 45%
    02:00 +28°C° 0 mm 2 mps 663 mmHg 44%
    03:00 +27°C° 0 mm 2 mps 663 mmHg 46%
    04:00 +27°C° 0 mm 2 mps 663 mmHg 47%
    05:00 +26°C° 0 mm 3 mps 663 mmHg 48%
    06:00 +27°C° 0 mm 3 mps 663 mmHg 50%
    07:00 +27°C° 0 mm 4 mps 664 mmHg 52%
    08:00 +28°C° 0 mm 5 mps 664 mmHg 54%
    09:00 +30°C° 0 mm 5 mps 665 mmHg 47%
    10:00 +33°C° 0 mm 5 mps 665 mmHg 40%
    11:00 +35°C° 0 mm 4 mps 665 mmHg 33%
    12:00 +36°C° 0 mm 4 mps 664 mmHg 32%
    13:00 +36°C° 0 mm 4 mps 664 mmHg 30%
    14:00 +36°C° 0 mm 4 mps 663 mmHg 28%
    15:00 +36°C° 0 mm 4 mps 662 mmHg 30%
    16:00 +35°C° 0 mm 4 mps 662 mmHg 32%
    17:00 +34°C° 0 mm 5 mps 661 mmHg 33%
    18:00 +33°C° 0 mm 4 mps 661 mmHg 37%
    19:00 +31°C° 0 mm 3 mps 661 mmHg 41%
    20:00 +29°C° 0 mm 1 mps 661 mmHg 45%
    21:00 +28°C° 0.4 mm 2 mps 662 mmHg 50%
    22:00 +27°C° 0.4 mm 3 mps 662 mmHg 56%
    23:00 +26°C° 0.4 mm 4 mps 663 mmHg 61%

    Day after tomorrow, 23 February, Sunday

    Time Temperature Precipitation Wind Pressure Humidity
    00:00 +25°C° 0.2 mm 4 mps 662 mmHg 66%
    01:00 +24°C° 0.2 mm 3 mps 662 mmHg 71%
    02:00 +24°C° 0.2 mm 2 mps 661 mmHg 75%
    03:00 +23°C° 0 mm 2 mps 661 mmHg 77%
    04:00 +23°C° 0 mm 2 mps 661 mmHg 78%
    05:00 +23°C° 0 mm 2 mps 661 mmHg 79%
    06:00 +22°C° 0.1 mm 3 mps 662 mmHg 78%
    07:00 +22°C° 0.1 mm 3 mps 662 mmHg 76%
    08:00 +23°C° 0.1 mm 4 mps 663 mmHg 74%
    09:00 +25°C° 0.1 mm 4 mps 663 mmHg 69%
    10:00 +26°C° 0.1 mm 4 mps 663 mmHg 64%
    11:00 +27°C° 0.1 mm 4 mps 664 mmHg 59%
    12:00 +29°C° 0 mm 4 mps 664 mmHg 53%
    13:00 +30°C° 0 mm 5 mps 664 mmHg 48%
    14:00 +32°C° 0 mm 5 mps 664 mmHg 42%
    15:00 +30°C° 0.2 mm 5 mps 663 mmHg 44%
    16:00 +30°C° 0.2 mm 6 mps 662 mmHg 46%
    17:00 +29°C° 0.2 mm 7 mps 662 mmHg 48%
    18:00 +27°C° 0 mm 7 mps 662 mmHg 56%
    19:00 +24°C° 0 mm 8 mps 663 mmHg 64%
    20:00 +22°C° 0 mm 9 mps 663 mmHg 72%
    21:00 +21°C° 0 mm 9 mps 664 mmHg 75%
    22:00 +21°C° 0 mm 8 mps 664 mmHg 79%
    23:00 +20°C° 0 mm 8 mps 665 mmHg 82%

    24 February, Monday

    Time Temperature Precipitation Wind Pressure Humidity
    00:00 +20°C° 0 mm 8 mps 665 mmHg 82%
    01:00 +20°C° 0 mm 7 mps 664 mmHg 82%
    02:00 +18°C° 0 mm 7 mps 664 mmHg 81%
    03:00 +18°C° 0.1 mm 7 mps 664 mmHg 82%
    04:00 +19°C° 0.1 mm 6 mps 664 mmHg 83%
    05:00 +19°C° 0.1 mm 6 mps 664 mmHg 84%
    06:00 +17°C° 0.1 mm 6 mps 665 mmHg 84%
    07:00 +17°C° 0.1 mm 6 mps 665 mmHg 83%
    08:00 +17°C° 0.1 mm 6 mps 665 mmHg 83%
    09:00 +19°C° 0 mm 6 mps 665 mmHg 81%
    10:00 +19°C° 0 mm 6 mps 666 mmHg 79%
    11:00 +19°C° 0 mm 6 mps 666 mmHg 77%
    12:00 +20°C° 0 mm 6 mps 666 mmHg 71%
    13:00 +21°C° 0 mm 6 mps 666 mmHg 64%
    14:00 +22°C° 0 mm 6 mps 666 mmHg 58%
    15:00 +22°C° 0 mm 6 mps 666 mmHg 56%
    16:00 +23°C° 0 mm 6 mps 666 mmHg 54%
    17:00 +23°C° 0 mm 6 mps 665 mmHg 52%
    18:00 +21°C° 0 mm 5 mps 665 mmHg 59%
    19:00 +20°C° 0 mm 5 mps 665 mmHg 67%
    20:00 +18°C° 0 mm 4 mps 665 mmHg 75%
    21:00 +17°C° 0 mm 4 mps 665 mmHg 78%
    22:00 +17°C° 0 mm 4 mps 665 mmHg 80%
    23:00 +15°C° 0 mm 4 mps 665 mmHg 83%

    25 February, Tuesday

    Time Temperature Precipitation Wind Pressure Humidity
    00:00 +16°C° 0 mm 3 mps 665 mmHg 85%
    01:00 +14°C° 0 mm 3 mps 665 mmHg 87%
    02:00 +14°C° 0 mm 3 mps 664 mmHg 89%
    03:00 +14°C° 0 mm 3 mps 664 mmHg 87%
    04:00 +15°C° 0 mm 4 mps 665 mmHg 84%
    05:00 +15°C° 0 mm 4 mps 665 mmHg 82%
    06:00 +15°C° 0 mm 4 mps 665 mmHg 82%
    07:00 +15°C° 0 mm 4 mps 665 mmHg 81%
    08:00 +15°C° 0 mm 5 mps 665 mmHg 81%
    09:00 +16°C° 0 mm 5 mps 665 mmHg 79%
    10:00 +16°C° 0 mm 5 mps 666 mmHg 76%
    11:00 +17°C° 0 mm 5 mps 666 mmHg 73%
    12:00 +19°C° 0 mm 5 mps 665 mmHg 71%
    13:00 +19°C° 0 mm 4 mps 665 mmHg 69%
    14:00 +20°C° 0 mm 4 mps 665 mmHg 67%
    15:00 +20°C° 0 mm 4 mps 665 mmHg 65%
    16:00 +21°C° 0 mm 4 mps 665 mmHg 63%
    17:00 +21°C° 0 mm 4 mps 664 mmHg 61%
    18:00 +20°C° 0 mm 4 mps 664 mmHg 66%
    19:00 +19°C° 0 mm 3 mps 664 mmHg 70%
    20:00 +18°C° 0 mm 3 mps 664 mmHg 75%
    21:00 +18°C° 0 mm 3 mps 664 mmHg 76%
    22:00 +17°C° 0 mm 3 mps 664 mmHg 78%
    23:00 +17°C° 0 mm 2 mps 664 mmHg 80%

    26 February, Wednesday

    Time Temperature Precipitation Wind Pressure Humidity
    00:00 +17°C° 0 mm 2 mps 664 mmHg 81%
    01:00 +17°C° 0 mm 3 mps 663 mmHg 81%
    02:00 +16°C° 0 mm 3 mps 663 mmHg 82%
    03:00 +17°C° 0 mm 3 mps 663 mmHg 82%
    04:00 +17°C° 0 mm 2 mps 663 mmHg 81%
    05:00 +17°C° 0 mm 2 mps 663 mmHg 81%
    06:00 +17°C° 0.2 mm 3 mps 664 mmHg 80%
    07:00 +18°C° 0.2 mm 3 mps 664 mmHg 80%
    08:00 +18°C° 0.2 mm 3 mps 665 mmHg 79%
    09:00 +19°C° 0 mm 3 mps 665 mmHg 76%
    10:00 +20°C° 0 mm 4 mps 665 mmHg 72%
    11:00 +21°C° 0 mm 4 mps 665 mmHg 68%
    12:00 +21°C° 0 mm 4 mps 665 mmHg 65%
    13:00 +22°C° 0 mm 4 mps 665 mmHg 63%
    14:00 +23°C° 0 mm 4 mps 665 mmHg 60%
    15:00 +22°C° 0.1 mm 4 mps 664 mmHg 65%
    16:00 +21°C° 0.1 mm 3 mps 664 mmHg 70%
    17:00 +20°C° 0.1 mm 3 mps 663 mmHg 75%
    18:00 +20°C° 0.2 mm 2 mps 663 mmHg 78%
    19:00 +20°C° 0.2 mm 1 mps 663 mmHg 82%
    20:00 +20°C° 0.2 mm 1 mps 663 mmHg 85%
    21:00 +20°C° 0.1 mm 1 mps 663 mmHg 86%
    22:00 +20°C° 0.1 mm 1 mps 663 mmHg 87%
    23:00 +20°C° 0.1 mm 1 mps 663 mmHg 88%
    Show more